2 juli 2022

Tijd Code Weer Temp. Zicht Plafond Wind METAR/SPECI
9:50 a.m.
V
68 °F 6¼ mi+ - 140° 140° 4 kt METAR EDLV 020750Z 14004KT 100V190 CAVOK 20/13 Q1022
9:20 a.m.
V
66 °F 6¼ mi+ - 140° 140° 4 kt METAR EDLV 020720Z 14004KT 110V180 CAVOK 19/12 Q1022
8:50 a.m.
V
64 °F 6¼ mi+ - 160° 160° 4 kt METAR EDLV 020650Z 16004KT 130V230 CAVOK 18/12 Q1022
8:20 a.m.
V
63 °F 6¼ mi+ - 180° 180° 4 kt METAR EDLV 020620Z 18004KT CAVOK 17/12 Q1022
7:50 a.m.
V
61 °F 6¼ mi+ - 190° 190° 3 kt METAR EDLV 020550Z 19003KT 150V240 CAVOK 16/12 Q1022
7:20 a.m.
V
59 °F 6¼ mi+ - 200° 200° 4 kt METAR EDLV 020520Z 20004KT CAVOK 15/12 Q1022
6:50 a.m.
V
55 °F 6¼ mi+ - 200° 200° 4 kt METAR EDLV 020450Z 20004KT 170V230 CAVOK 13/12 Q1022
6:20 a.m.
V
54 °F 6¼ mi+ - 200° 200° 4 kt METAR EDLV 020420Z 20004KT 170V230 CAVOK 12/10 Q1022
5:50 a.m.
V
52 °F 6¼ mi+ - 180° 180° 4 kt METAR EDLV 020350Z 18004KT CAVOK 11/10 Q1022
5:20 a.m.
V
52 °F 6¼ mi+ - 170° 170° 4 kt METAR EDLV 020320Z 17004KT CAVOK 11/10 Q1022
4:50 a.m.
V
52 °F 6¼ mi+ - 170° 170° 4 kt METAR EDLV 020250Z 17004KT CAVOK 11/10 Q1022
4:20 a.m.
V
52 °F 6¼ mi+ - Var Var 2 kt METAR EDLV 020220Z AUTO VRB02KT 9999 NCD 11/10 Q1022
3:50 a.m.
V
52 °F 6¼ mi+ - 180° 180° 5 kt METAR EDLV 020150Z AUTO 18005KT 9999 NCD 11/10 Q1022
3:20 a.m.
V
52 °F 6¼ mi+ - Var Var 2 kt METAR EDLV 020120Z AUTO VRB02KT 9999 NCD 11/10 Q1022
2:50 a.m.
V
54 °F 6¼ mi+ - 170° 170° 5 kt METAR EDLV 020050Z AUTO 17005KT 9999 NCD 12/11 Q1022
2:20 a.m.
V
54 °F 6¼ mi+ - 160° 160° 4 kt METAR EDLV 020020Z AUTO 16004KT 9999 NCD 12/11 Q1022
1:50 a.m.
V
55 °F 6¼ mi+ - 140° 140° 3 kt METAR EDLV 012350Z AUTO 14003KT 9999 NCD 13/11 Q1022
1:20 a.m.
V
55 °F 6¼ mi+ - 150° 150° 3 kt METAR EDLV 012320Z AUTO 15003KT 9999 NCD 13/11 Q1021
12:50 a.m.
V
54 °F 6¼ mi+ - Var Var 2 kt METAR EDLV 012250Z AUTO VRB02KT 9999 NCD 12/10 Q1021
12:20 a.m.
V
55 °F 6¼ mi+ - Var Var 2 kt METAR EDLV 012220Z AUTO VRB02KT 9999 FEW048/// 13/11 Q1021

1 juli 2022

Tijd Code Weer Temp. Zicht Plafond Wind METAR/SPECI
11:50 p.m.
V
57 °F 5⅝ mi - 130° 130° 2 kt METAR EDLV 012150Z AUTO 13002KT 9000 FEW076/// 14/11 Q1021
11:20 p.m.
V
57 °F 6¼ mi+ - 140° 140° 2 kt METAR EDLV 012120Z 14002KT CAVOK 14/11 Q1021
10:50 p.m.
V
57 °F 6¼ mi+ - Var Var 2 kt METAR EDLV 012050Z VRB02KT CAVOK 14/11 Q1021
10:20 p.m.
V
59 °F 5⅝ mi - 120° 120° 2 kt METAR EDLV 012020Z 12002KT 9000 NSC 15/11 Q1021
9:50 p.m.
V
61 °F 6¼ mi+ - Var Var 1 kt METAR EDLV 011950Z VRB01KT CAVOK 16/11 Q1020
9:20 p.m.
V
63 °F 6¼ mi+ - Var Var 2 kt METAR EDLV 011920Z VRB02KT CAVOK 17/11 Q1020
8:50 p.m.
V
64 °F 6¼ mi+ - 280° 280° 6 kt METAR EDLV 011850Z 28006KT CAVOK 18/11 Q1020
8:20 p.m.
V
66 °F 6¼ mi+ - 280° 280° 8 kt METAR EDLV 011820Z 28008KT CAVOK 19/10 Q1020
7:50 p.m.
V
66 °F 6¼ mi+ - 290° 290° 7 kt METAR EDLV 011750Z 29007KT 240V320 CAVOK 19/10 Q1020
7:20 p.m.
V
66 °F 6¼ mi+ - 280° 280° 7 kt METAR EDLV 011720Z 28007KT CAVOK 19/11 Q1019
6:50 p.m.
V
66 °F 6¼ mi+ - 280° 280° 11 kt METAR EDLV 011650Z 28011KT 250V310 CAVOK 19/11 Q1019
6:20 p.m.
V
68 °F 6¼ mi+ - 260° 260° 12 kt METAR EDLV 011620Z 26012KT CAVOK 20/09 Q1019
5:50 p.m.
V
68 °F 6¼ mi+ - 250° 250° 8 kt METAR EDLV 011550Z 25008KT CAVOK 20/09 Q1019
5:20 p.m.
V
68 °F 6¼ mi+ - 230° 230° 12 kt METAR EDLV 011520Z 23012KT 190V260 CAVOK 20/09 Q1018
4:50 p.m.
V
72 °F 6¼ mi+ - 250° 250° 10 kt METAR EDLV 011450Z 25010KT 200V280 CAVOK 22/11 Q1018
4:20 p.m.
V
68 °F 6¼ mi+ - 240° 240° 11 kt METAR EDLV 011420Z 24011KT 210V270 CAVOK 20/09 Q1018
3:50 p.m.
V
68 °F 6¼ mi+ - 220° 220° 10 kt METAR EDLV 011350Z 22010KT 200V260 9999 SCT048 20/10 Q1018
3:20 p.m.
V
70 °F 6¼ mi+ - 240° 240° 9 kt METAR EDLV 011320Z 24009KT 210V280 9999 FEW047 21/11 Q1018
2:50 p.m.
V
68 °F 6¼ mi+ - 240° 240° 8 kt METAR EDLV 011250Z 24008KT 200V280 9999 SCT047 20/11 Q1018
2:20 p.m.
V
68 °F 6¼ mi+ - 260° 260° 8 kt METAR EDLV 011220Z 26008KT 220V290 9999 SCT046 20/09 Q1018
1:50 p.m.
V
66 °F 6¼ mi+ - 240° 240° 8 kt METAR EDLV 011150Z 24008KT 210V270 9999 SCT044 19/10 Q1018
1:20 p.m.
V
66 °F 6¼ mi+ - 240° 240° 10 kt METAR EDLV 011120Z 24010KT 210V290 9999 SCT042 19/09 Q1018
12:50 p.m.
V
64 °F 6¼ mi+ - 230° 230° 11 kt METAR EDLV 011050Z 23011KT 190V280 9999 SCT036 18/09 Q1018
12:20 p.m.
V
66 °F 6¼ mi+ - 230° 230° 9 kt METAR EDLV 011020Z 23009KT 200V270 9999 SCT034 19/11 Q1018
11:50 a.m.
V
64 °F 6¼ mi+ - 240° 240° 8 kt METAR EDLV 010950Z 24008KT 210V280 9999 FEW031 18/10 Q1018
11:20 a.m.
V
63 °F 6¼ mi+ - 240° 240° 10 kt METAR EDLV 010920Z 24010KT CAVOK 17/11 Q1018
10:50 a.m.
V
63 °F 6¼ mi+ - 250° 250° 10 kt METAR EDLV 010850Z 25010KT 190V280 9999 FEW023 17/12 Q1018
10:20 a.m.
V
61 °F 6¼ mi+ - 240° 240° 8 kt METAR EDLV 010820Z 24008KT 200V270 9999 FEW018 16/11 Q1017
9:50 a.m.
V
59 °F 6¼ mi+ - 240° 240° 9 kt METAR EDLV 010750Z 24009KT 9999 FEW013 15/12 Q1017
9:20 a.m.
V
59 °F 6¼ mi+ - 230° 230° 9 kt METAR EDLV 010720Z 23009KT 200V260 9999 FEW010 SCT012 15/12 Q1017
8:50 a.m.
V
57 °F 6¼ mi+ - 220° 220° 7 kt METAR EDLV 010650Z 22007KT 190V250 9999 FEW010 14/12 Q1017
8:20 a.m.
I
57 °F 6¼ mi+ 900 ft 230° 230° 6 kt METAR EDLV 010620Z 23006KT 9999 BKN009 14/12 Q1017
7:50 a.m.
M
57 °F 6¼ mi+ 1.000 ft 230° 230° 6 kt METAR EDLV 010550Z 23006KT 190V250 9999 SCT008 BKN010 14/12 Q1016
7:20 a.m.
I
57 °F 6¼ mi+ 800 ft 220° 220° 7 kt METAR EDLV 010520Z 22007KT 9999 BKN008 14/12 Q1016
6:50 a.m.
M
55 °F 6¼ mi+ 1.000 ft 200° 200° 6 kt METAR EDLV 010450Z 20006KT 9999 SCT008 BKN010 13/12 Q1016
6:20 a.m.
M
55 °F 6¼ mi+ 1.200 ft 210° 210° 7 kt METAR EDLV 010420Z 21007KT 9999 FEW008 BKN012 13/12 Q1016
5:50 a.m.
I
55 °F 6¼ mi+ 800 ft 220° 220° 6 kt METAR EDLV 010350Z 22006KT 9999 OVC008 13/12 Q1016
5:20 a.m.
I
55 °F 5⅝ mi 900 ft 240° 240° 7 kt METAR EDLV 010320Z 24007KT 9000 OVC009 13/12 Q1016
4:50 a.m.
I
55 °F 6¼ mi+ 800 ft 240° 240° 7 kt METAR EDLV 010250Z AUTO 24007KT 9999 OVC008/// 13/12 Q1015
4:20 a.m.
I
55 °F 5⅝ mi 700 ft 240° 240° 6 kt METAR EDLV 010220Z AUTO 24006KT 210V280 9000 OVC007/// 13/12 Q1015
3:50 a.m.
I
55 °F 5⅝ mi 700 ft 230° 230° 7 kt METAR EDLV 010150Z AUTO 23007KT 210V270 9000 BKN007/// 13/13 Q1015
3:20 a.m.
V
55 °F 5⅝ mi 19.000 ft 230° 230° 8 kt METAR EDLV 010120Z AUTO 23008KT 9000 SCT007/// BKN190/// 13/13 Q1015
2:50 a.m.
I
57 °F 3¾ mi 700 ft 240° 240° 6 kt METAR EDLV 010050Z AUTO 24006KT 6000 BKN007/// BKN035/// 14/13 Q1015
2:20 a.m.
I
57 °F 3⅛ mi 700 ft 240° 240° 7 kt METAR EDLV 010020Z AUTO 24007KT 5000 BKN007/// BKN035/// BKN092/// 14/13 Q1015
1:50 a.m.
I
57 °F 3¾ mi 800 ft 240° 240° 6 kt METAR EDLV 302350Z AUTO 24006KT 6000 FEW006/// BKN008/// OVC026/// 14/13 Q1015
1:20 a.m.
I
57 °F 5⅝ mi 600 ft 240° 240° 9 kt METAR EDLV 302320Z AUTO 24009KT 9000 BKN006/// BKN024/// OVC072/// 14/13 Q1015
12:50 a.m.
M
57 °F 6¼ mi+ 2.800 ft 240° 240° 7 kt METAR EDLV 302250Z AUTO 24007KT 210V270 9999 FEW008/// BKN028/// OVC071/// 14/13 Q1015
12:20 a.m.
M
57 °F 6¼ mi+ 2.900 ft 240° 240° 7 kt METAR EDLV 302220Z AUTO 24007KT 9999 SCT007/// SCT019/// OVC029/// 14/13 Q1015

30 juni 2022

Tijd Code Weer Temp. Zicht Plafond Wind METAR/SPECI
11:50 p.m.
M
57 °F 6¼ mi+ 1.200 ft 250° 250° 9 kt METAR EDLV 302150Z 25009KT 9999 SCT006 BKN012 14/13 Q1015
11:20 p.m.
V
57 °F 6¼ mi+ - 230° 230° 5 kt METAR EDLV 302120Z 23005KT 200V270 9999 SCT006 14/13 Q1014
10:50 p.m.
I
57 °F 6¼ mi+ 700 ft 280° 280° 4 kt METAR EDLV 302050Z 28004KT 260V320 9999 BKN007 BKN048 14/13 Q1014
10:20 p.m.
V
57 °F 6¼ mi+ - 300° 300° 5 kt METAR EDLV 302020Z 30005KT 9999 FEW007 14/13 Q1013
9:50 p.m.
V
57 °F 6¼ mi+ - 290° 290° 6 kt METAR EDLV 301950Z 29006KT 9999 FEW007 14/13 Q1013
9:20 p.m.
V
57 °F 5⅝ mi 4.100 ft 300° 300° 9 kt METAR EDLV 301920Z 30009KT 260V340 9000 -RA SCT006 BKN041 14/13 Q1012
8:50 p.m.
V
57 °F 6¼ mi+ - 280° 280° 11 kt METAR EDLV 301850Z 28011KT 260V330 9999 -RA SCT011 14/13 Q1013
8:20 p.m.
V
59 °F 6¼ mi+ - 290° 290° 14 - 25 kt METAR EDLV 301820Z 29014G25KT 260V320 9999 FEW010 15/13 Q1012
7:50 p.m.
M
61 °F 6¼ mi+ 1.100 ft 280° 280° 17 kt METAR EDLV 301750Z 28017KT 9999 FEW008 BKN011 16/14 Q1011 RESHRA
7:20 p.m.
M
61 °F 3⅛ mi 2.400 ft 260° 260° 19 - 31 kt METAR EDLV 301720Z 26019G31KT 230V300 5000 SHRA VCTS SCT006 BKN024CB 16/15 Q1011
6:50 p.m.
V
68 °F 6¼ mi+ - 290° 290° 11 kt METAR EDLV 301650Z 29011KT 260V330 9999 -RA VCTS FEW016CB 20/16 Q1009
6:20 p.m.
V
73 °F 6¼ mi+ - 300° 300° 12 kt METAR EDLV 301620Z 30012KT CAVOK 23/16 Q1008
5:50 p.m.
V
77 °F 6¼ mi+ - 310° 310° 8 - 18 kt METAR EDLV 301550Z 31008G18KT 270V350 CAVOK 25/17 Q1009
5:20 p.m.
V
81 °F 6¼ mi+ - 310° 310° 6 kt METAR EDLV 301520Z 31006KT 270V360 CAVOK 27/16 Q1009
4:50 p.m.
V
79 °F 6¼ mi+ - 300° 300° 7 kt METAR EDLV 301450Z 30007KT 270V350 CAVOK 26/17 Q1009
4:20 p.m.
V
79 °F 6¼ mi+ - 310° 310° 7 kt METAR EDLV 301420Z 31007KT 270V350 CAVOK 26/17 Q1009
3:50 p.m.
V
79 °F 6¼ mi+ - 300° 300° 6 kt METAR EDLV 301350Z 30006KT 270V010 CAVOK 26/16 Q1010
3:20 p.m.
V
79 °F 6¼ mi+ - 320° 320° 5 kt METAR EDLV 301320Z 32005KT 280V020 CAVOK 26/15 Q1010
2:50 p.m.
V
79 °F 6¼ mi+ - 330° 330° 5 kt METAR EDLV 301250Z 33005KT 290V040 CAVOK 26/15 Q1010
2:20 p.m.
V
79 °F 6¼ mi+ - 350° 350° 4 kt METAR EDLV 301220Z 35004KT 300V080 CAVOK 26/17 Q1011
1:50 p.m.
V
79 °F 6¼ mi+ - 320° 320° 5 kt METAR EDLV 301150Z 32005KT 270V040 CAVOK 26/17 Q1011
1:20 p.m.
V
77 °F 6¼ mi+ - 290° 290° 6 kt METAR EDLV 301120Z 29006KT 250V340 CAVOK 25/17 Q1011
12:50 p.m.
V
77 °F 6¼ mi+ - Var Var 3 kt METAR EDLV 301050Z VRB03KT CAVOK 25/16 Q1011
12:20 p.m.
V
75 °F 6¼ mi+ - 280° 280° 6 kt METAR EDLV 301020Z 28006KT 240V320 CAVOK 24/15 Q1012
11:50 a.m.
V
75 °F 6¼ mi+ - 250° 250° 6 kt METAR EDLV 300950Z 25006KT 210V320 9999 FEW016 24/17 Q1012
11:20 a.m.
V
73 °F 6¼ mi+ - 270° 270° 6 kt METAR EDLV 300920Z 27006KT 230V330 CAVOK 23/16 Q1011
10:50 a.m.
V
73 °F 6¼ mi+ - 260° 260° 7 kt METAR EDLV 300850Z 26007KT 220V290 CAVOK 23/16 Q1012
Oudere gegevens

Installeer onze app

Gemakkelijke toegang tot al het luchtvaartweer op je mobiele telefoon en tablet.
Met veel functies die niet op de website beschikbaar zijn, zoals offline ondersteuning en een persoonlijke lijst van vliegvelden.

Met cookies volgen wij en derde partijen jouw internetgedrag binnen onze site. Als je verdergaat gaan we ervan uit dat je dit goedvindt. Meer info